Hourly Data Report for March 31, 2015

All times are specified in Local Standard Time (LST). Add 1 hour to adjust for Daylight Saving Time where and when it is observed.

MIRAMICHI RCS
NEW BRUNSWICK

47°00'34.000" N
65°27'54.000" W
33.00 m
8100989
71744
ACQ

Download Data

Hourly Data (March 2015)
Hourly Data Report for March 31, 2015
TIME Temp Definition
°C
Dew Point Definition
°C
Rel Hum Definition
%
Wind Dir Definition
10's deg

Wind Spd Definition
km/h
Visibility Definition
km
Stn Press Definition
kPa
Hmdx Definition


Wind Chill Definition


Weather Definition


00:00 0.8 -1.8 83 20 16   99.78     LegendNANA
01:00 0.8 -1.6 84 19 17   99.72     LegendNANA
02:00 0.6 -1.4 87 20 15   99.65     LegendNANA
03:00 0.5 -1.2 88 21 6   99.57     LegendNANA
04:00 0.4 -0.9 91 19 8   99.52     LegendNANA
05:00 0.4 -0.6 93 19 11   99.50     LegendNANA
06:00 0.4 -0.8 92 19 10   99.49     LegendNANA
07:00 0.3 -0.9 92 22 9   99.49     LegendNANA
08:00 0.8 -1.1 87 24 10   99.46     LegendNANA
09:00 3.1 -1.2 74 24 9   99.43     LegendNANA
10:00 3.9 -1.2 69 26 12   99.42     LegendNANA
11:00 3.9 -1.2 69 26 14   99.40     LegendNANA
12:00 4.4 -1.5 65 27 10   99.37     LegendNANA
13:00 3.8 -1.2 70 34 9   99.36     LegendNANA
14:00 3.8 -1.5 69 20 2   99.34     LegendNANA
15:00 4.9 -1.3 64 6 6   99.34     LegendNANA
16:00 4.8 -1.2 65 30 12   99.42     LegendNANA
17:00 4.0 -2.4 63 29 10   99.50     LegendNANA
18:00 4.0 -4.6 53 30 18   99.61     LegendNANA
19:00 2.1 -4.4 62 29 7   99.73     LegendNANA
20:00 1.3 -5.1 63 28 11   99.83     LegendNANA
21:00 1.5 -5.9 58 29 13   99.91     LegendNANA
22:00 0.9 -5.9 61 28 13   100.00     LegendNANA
23:00 0.7 -6.8 57 30 12   100.03     LegendNANA

Notes on Data Quality.

Legend

  • E = Estimated
  • M = Missing
  • NA = Not Available
Date modified: